owner,sensor,date,latitude,longitude,vertical_datum,wind_speed,wind_to_direction,wind_speed_of_gust,qcFlag 
TCOON,ioos:station:TCOON:009:1,2011-11-01T00:00:00Z,27.8398,-97.0727,0.0,3.6,103.0,5.5,'11111222,11111222,11111222' 
TCOON,ioos:station:TCOON:009:1,2011-11-01T15:00:00Z,27.8398,-97.0727,0.0,3.8,128.0,5.1,'11111222,11111222,11111222' 
TCOON,ioos:station:TCOON:009:1,2011-11-01T16:00:00Z,27.8398,-97.0727,0.0,4.0,135.0,5.8,'11111222,11111222,11111222' 
TCOON,ioos:station:TCOON:009:1,2011-11-01T17:00:00Z,27.8398,-97.0727,0.0,3.6,124.0,6.2,'11111222,11111222,11111222' 
TCOON,ioos:station:TCOON:009:1,2011-11-01T18:00:00Z,27.8398,-97.0727,0.0,3.5,144.0,5.9,'11111222,11111222,11111222' 
TCOON,ioos:station:TCOON:009:1,2011-11-01T19:00:00Z,27.8398,-97.0727,0.0,2.8,145.0,5.9,'11111222,11111222,11111222' 
TCOON,ioos:station:TCOON:009:1,2011-11-01T20:00:00Z,27.8398,-97.0727,0.0,2.1,164.0,4.6,'11111222,11111222,11111222' 
TCOON,ioos:station:TCOON:009:1,2011-11-01T21:00:00Z,27.8398,-97.0727,0.0,2.9,168.0,5.1,'11111222,11111222,11111222' 
TCOON,ioos:station:TCOON:009:1,2011-11-01T22:00:00Z,27.8398,-97.0727,0.0,3.6,158.0,4.6,'11111222,11111222,11111222' 
TCOON,ioos:station:TCOON:009:1,2011-11-01T23:00:00Z,27.8398,-97.0727,0.0,3.2,132.0,4.6,'11111222,11111222,11111222' 
TCOON,ioos:station:TCOON:009:1,2011-11-02T00:00:00Z,27.8398,-97.0727,0.0,5.2,126.0,6.5,'11111222,11111222,11111222' 
TCOON,ioos:station:TCOON:009:1,2011-11-02T01:00:00Z,27.8398,-97.0727,0.0,3.8,114.0,5.5,'11111222,11111222,11111222' 
TCOON,ioos:station:TCOON:009:1,2011-11-02T02:00:00Z,27.8398,-97.0727,0.0,4.1,134.0,6.7,'11111222,11111222,11111222' 
TCOON,ioos:station:TCOON:009:1,2011-11-02T03:00:00Z,27.8398,-97.0727,0.0,4.8,125.0,7.6,'11111222,11111222,11111222' 
TCOON,ioos:station:TCOON:009:1,2011-11-02T04:00:00Z,27.8398,-97.0727,0.0,5.3,131.0,8.2,'11111222,11111222,11111222' 
TCOON,ioos:station:TCOON:009:1,2011-11-02T05:00:00Z,27.8398,-97.0727,0.0,4.1,139.0,6.8,'11111222,11111222,11111222' 
TCOON,ioos:station:TCOON:009:1,2011-11-02T06:00:00Z,27.8398,-97.0727,0.0,5.4,137.0,8.1,'11111222,11111222,11111222' 
TCOON,ioos:station:TCOON:009:1,2011-11-02T07:00:00Z,27.8398,-97.0727,0.0,4.5,141.0,7.1,'11111222,11111222,11111222' 
TCOON,ioos:station:TCOON:009:1,2011-11-02T08:00:00Z,27.8398,-97.0727,0.0,3.6,139.0,6.9,'11111222,11111222,11111222' 
TCOON,ioos:station:TCOON:009:1,2011-11-02T09:00:00Z,27.8398,-97.0727,0.0,4.2,142.0,6.8,'11111222,11111222,11111222' 
TCOON,ioos:station:TCOON:009:1,2011-11-02T10:00:00Z,27.8398,-97.0727,0.0,3.2,150.0,5.8,'11111222,11111222,11111222' 
TCOON,ioos:station:TCOON:009:1,2011-11-02T11:00:00Z,27.8398,-97.0727,0.0,3.1,142.0,5.1,'11111222,11111222,11111222' 
TCOON,ioos:station:TCOON:009:1,2011-11-02T12:00:00Z,27.8398,-97.0727,0.0,3.3,156.0,5.1,'11111222,11111222,11111222' 
TCOON,ioos:station:TCOON:009:1,2011-11-02T13:00:00Z,27.8398,-97.0727,0.0,3.0,155.0,5.3,'11111222,11111222,11111222' 
TCOON,ioos:station:TCOON:009:1,2011-11-02T14:00:00Z,27.8398,-97.0727,0.0,4.0,158.0,6.0,'11111222,11111222,11111222' 
TCOON,ioos:station:TCOON:009:1,2011-11-02T15:00:00Z,27.8398,-97.0727,0.0,5.0,146.0,7.3,'11111222,11111222,11111222' 
TCOON,ioos:station:TCOON:009:1,2011-11-02T16:00:00Z,27.8398,-97.0727,0.0,5.8,149.0,9.3,'11111222,11111222,11111222' 
TCOON,ioos:station:TCOON:009:1,2011-11-02T17:00:00Z,27.8398,-97.0727,0.0,5.0,145.0,8.6,'11111222,11111222,11111222' 
TCOON,ioos:station:TCOON:009:1,2011-11-02T18:00:00Z,27.8398,-97.0727,0.0,3.7,146.0,6.8,'11111222,11111222,11111222' 
TCOON,ioos:station:TCOON:009:1,2011-11-02T19:00:00Z,27.8398,-97.0727,0.0,3.7,157.0,8.6,'11111222,11111222,11111222' 
TCOON,ioos:station:TCOON:009:1,2011-11-02T20:00:00Z,27.8398,-97.0727,0.0,5.7,150.0,,'1111122,1111122,1111122' 
TCOON,ioos:station:TCOON:009:1,2011-11-02T21:00:00Z,27.8398,-97.0727,0.0,5.7,140.0,,'1111122,1111122,1111122' 
TCOON,ioos:station:TCOON:009:1,2011-11-02T22:00:00Z,27.8398,-97.0727,0.0,4.6,140.0,,'1111122,1111122,1111122' 
TCOON,ioos:station:TCOON:009:1,2011-11-02T23:00:00Z,27.8398,-97.0727,0.0,5.7,140.0,,'1111122,1111122,1111122' 
TCOON,ioos:station:TCOON:009:1,2011-11-03T00:00:00Z,27.8398,-97.0727,0.0,3.6,140.0,,'1111122,1111122,1111122' 
TCOON,ioos:station:TCOON:009:1,2011-11-03T01:00:00Z,27.8398,-97.0727,0.0,2.6,140.0,,'1111122,1111122,1111122' 
TCOON,ioos:station:TCOON:009:1,2011-11-03T02:00:00Z,27.8398,-97.0727,0.0,3.6,140.0,,'1111122,1111122,1111122' 
TCOON,ioos:station:TCOON:009:1,2011-11-03T03:00:00Z,27.8398,-97.0727,0.0,2.6,150.0,,'1111122,1111122,1111122' 
TCOON,ioos:station:TCOON:009:1,2011-11-03T04:00:00Z,27.8398,-97.0727,0.0,1.5,150.0,,'1111122,1111122,1111122' 
TCOON,ioos:station:TCOON:009:1,2011-11-03T05:00:00Z,27.8398,-97.0727,0.0,1.5,160.0,,'1111122,1111122,1111122' 
TCOON,ioos:station:TCOON:009:1,2011-11-03T06:00:00Z,27.8398,-97.0727,0.0,1.5,190.0,,'1111122,1111122,1111122' 
TCOON,ioos:station:TCOON:009:1,2011-11-03T07:00:00Z,27.8398,-97.0727,0.0,1.5,230.0,,'1111122,1111122,1111122' 
TCOON,ioos:station:TCOON:009:1,2011-11-03T08:00:00Z,27.8398,-97.0727,0.0,10.8,360.0,,'1111122,1111122,1111122' 
TCOON,ioos:station:TCOON:009:1,2011-11-03T09:00:00Z,27.8398,-97.0727,0.0,12.3,360.0,,'1111122,1111122,1111122' 
TCOON,ioos:station:TCOON:009:1,2011-11-03T10:00:00Z,27.8398,-97.0727,0.0,9.3,350.0,,'1111122,1111122,1111122' 
TCOON,ioos:station:TCOON:009:1,2011-11-03T11:00:00Z,27.8398,-97.0727,0.0,11.8,350.0,,'1111122,1111122,1111122' 
TCOON,ioos:station:TCOON:009:1,2011-11-03T12:00:00Z,27.8398,-97.0727,0.0,11.9,359.0,14.5,'11111222,11111222,11111222' 
TCOON,ioos:station:TCOON:009:1,2011-11-03T13:00:00Z,27.8398,-97.0727,0.0,10.8,360.0,,'1111122,1111122,1111122' 
TCOON,ioos:station:TCOON:009:1,2011-11-03T14:00:00Z,27.8398,-97.0727,0.0,9.3,360.0,,'1111122,1111122,1111122' 
TCOON,ioos:station:TCOON:009:1,2011-11-03T15:00:00Z,27.8398,-97.0727,0.0,8.2,350.0,,'1111122,1111122,1111122' 
TCOON,ioos:station:TCOON:009:1,2011-11-03T16:00:00Z,27.8398,-97.0727,0.0,8.7,350.0,,'1111122,1111122,1111122' 
TCOON,ioos:station:TCOON:009:1,2011-11-03T17:00:00Z,27.8398,-97.0727,0.0,7.7,340.0,,'1111122,1111122,1111122' 
TCOON,ioos:station:TCOON:009:1,2011-11-03T18:00:00Z,27.8398,-97.0727,0.0,7.5,343.0,11.8,'11111222,11111222,11111222' 
TCOON,ioos:station:TCOON:009:1,2011-11-03T19:00:00Z,27.8398,-97.0727,0.0,6.2,350.0,,'1111122,1111122,1111122' 
TCOON,ioos:station:TCOON:009:1,2011-11-03T20:00:00Z,27.8398,-97.0727,0.0,7.7,350.0,,'1111122,1111122,1111122' 
TCOON,ioos:station:TCOON:009:1,2011-11-03T21:00:00Z,27.8398,-97.0727,0.0,8.7,350.0,,'1111122,1111122,1111122' 
TCOON,ioos:station:TCOON:009:1,2011-11-03T22:00:00Z,27.8398,-97.0727,0.0,6.2,350.0,,'1111122,1111122,1111122' 
TCOON,ioos:station:TCOON:009:1,2011-11-03T23:00:00Z,27.8398,-97.0727,0.0,8.2,350.0,,'1111122,1111122,1111122' 
TCOON,ioos:station:TCOON:009:1,2011-11-04T00:00:00Z,27.8398,-97.0727,0.0,4.6,350.0,,'1111122,1111122,1111122' 
TCOON,ioos:station:TCOON:009:1,2011-11-04T01:00:00Z,27.8398,-97.0727,0.0,4.1,350.0,,'1111122,1111122,1111122' 
TCOON,ioos:station:TCOON:009:1,2011-11-04T02:00:00Z,27.8398,-97.0727,0.0,3.6,360.0,,'1111122,1111122,1111122' 
TCOON,ioos:station:TCOON:009:1,2011-11-04T03:00:00Z,27.8398,-97.0727,0.0,4.1,8.0,5.3,'11111222,11111222,11111222' 
TCOON,ioos:station:TCOON:009:1,2011-11-04T04:00:00Z,27.8398,-97.0727,0.0,6.2,30.0,,'1111122,1111122,1111122' 
TCOON,ioos:station:TCOON:009:1,2011-11-04T05:00:00Z,27.8398,-97.0727,0.0,6.2,30.0,,'1111122,1111122,1111122' 
TCOON,ioos:station:TCOON:009:1,2011-11-04T06:00:00Z,27.8398,-97.0727,0.0,5.7,30.0,,'1111122,1111122,1111122' 
TCOON,ioos:station:TCOON:009:1,2011-11-04T07:00:00Z,27.8398,-97.0727,0.0,5.1,30.0,,'1111122,1111122,1111122' 
TCOON,ioos:station:TCOON:009:1,2011-11-04T08:00:00Z,27.8398,-97.0727,0.0,6.2,20.0,,'1111122,1111122,1111122' 
TCOON,ioos:station:TCOON:009:1,2011-11-04T09:00:00Z,27.8398,-97.0727,0.0,6.2,30.0,,'1111122,1111122,1111122' 
TCOON,ioos:station:TCOON:009:1,2011-11-04T10:00:00Z,27.8398,-97.0727,0.0,6.2,30.0,,'1111122,1111122,1111122' 
TCOON,ioos:station:TCOON:009:1,2011-11-04T11:00:00Z,27.8398,-97.0727,0.0,6.7,30.0,,'1111122,1111122,1111122' 
TCOON,ioos:station:TCOON:009:1,2011-11-04T12:00:00Z,27.8398,-97.0727,0.0,5.1,30.0,,'1111122,1111122,1111122' 
TCOON,ioos:station:TCOON:009:1,2011-11-04T13:00:00Z,27.8398,-97.0727,0.0,5.7,30.0,,'1111122,1111122,1111122' 
TCOON,ioos:station:TCOON:009:1,2011-11-04T14:00:00Z,27.8398,-97.0727,0.0,6.2,20.0,,'1111122,1111122,1111122' 
TCOON,ioos:station:TCOON:009:1,2011-11-04T15:00:00Z,27.8398,-97.0727,0.0,6.7,10.0,,'1111122,1111122,1111122' 
TCOON,ioos:station:TCOON:009:1,2011-11-04T16:00:00Z,27.8398,-97.0727,0.0,6.7,20.0,,'1111122,1111122,1111122' 
TCOON,ioos:station:TCOON:009:1,2011-11-04T17:00:00Z,27.8398,-97.0727,0.0,4.6,10.0,,'1111122,1111122,1111122' 
TCOON,ioos:station:TCOON:009:1,2011-11-04T18:00:00Z,27.8398,-97.0727,0.0,4.1,10.0,,'1111122,1111122,1111122' 
TCOON,ioos:station:TCOON:009:1,2011-11-04T19:00:00Z,27.8398,-97.0727,0.0,4.1,60.0,,'1111122,1111122,1111122' 
TCOON,ioos:station:TCOON:009:1,2011-11-04T20:00:00Z,27.8398,-97.0727,0.0,3.6,80.0,,'1111122,1111122,1111122' 
TCOON,ioos:station:TCOON:009:1,2011-11-04T21:00:00Z,27.8398,-97.0727,0.0,3.6,70.0,,'1111122,1111122,1111122' 
TCOON,ioos:station:TCOON:009:1,2011-11-04T22:00:00Z,27.8398,-97.0727,0.0,4.6,60.0,,'1111122,1111122,1111122' 
TCOON,ioos:station:TCOON:009:1,2011-11-04T23:00:00Z,27.8398,-97.0727,0.0,3.6,80.0,,'1111122,1111122,1111122' 
TCOON,ioos:station:TCOON:009:1,2011-11-05T00:00:00Z,27.8398,-97.0727,0.0,3.1,80.0,,'1111122,1111122,1111122' 
TCOON,ioos:station:TCOON:009:1,2011-11-05T01:00:00Z,27.8398,-97.0727,0.0,4.1,90.0,,'1111122,1111122,1111122' 
TCOON,ioos:station:TCOON:009:1,2011-11-05T02:00:00Z,27.8398,-97.0727,0.0,2.6,100.0,,'1111122,1111122,1111122' 
TCOON,ioos:station:TCOON:009:1,2011-11-05T03:00:00Z,27.8398,-97.0727,0.0,2.6,110.0,,'1111122,1111122,1111122' 
TCOON,ioos:station:TCOON:009:1,2011-11-05T04:00:00Z,27.8398,-97.0727,0.0,1.5,100.0,,'1111122,1111122,1111122' 
TCOON,ioos:station:TCOON:009:1,2011-11-05T05:00:00Z,27.8398,-97.0727,0.0,2.6,110.0,,'1111122,1111122,1111122' 
TCOON,ioos:station:TCOON:009:1,2011-11-05T06:00:00Z,27.8398,-97.0727,0.0,1.5,110.0,,'1111122,1111122,1111122' 
TCOON,ioos:station:TCOON:009:1,2011-11-05T07:00:00Z,27.8398,-97.0727,0.0,3.6,110.0,,'1111122,1111122,1111122' 
TCOON,ioos:station:TCOON:009:1,2011-11-05T08:00:00Z,27.8398,-97.0727,0.0,2.1,130.0,,'1111122,1111122,1111122' 
TCOON,ioos:station:TCOON:009:1,2011-11-05T09:00:00Z,27.8398,-97.0727,0.0,1.5,140.0,,'1111122,1111122,1111122' 
TCOON,ioos:station:TCOON:009:1,2011-11-05T10:00:00Z,27.8398,-97.0727,0.0,2.6,150.0,,'1111122,1111122,1111122' 
TCOON,ioos:station:TCOON:009:1,2011-11-05T11:00:00Z,27.8398,-97.0727,0.0,3.1,130.0,,'1111122,1111122,1111122' 
TCOON,ioos:station:TCOON:009:1,2011-11-05T12:00:00Z,27.8398,-97.0727,0.0,3.1,140.0,,'1111122,1111122,1111122' 
TCOON,ioos:station:TCOON:009:1,2011-11-05T13:00:00Z,27.8398,-97.0727,0.0,2.6,130.0,,'1111122,1111122,1111122' 
TCOON,ioos:station:TCOON:009:1,2011-11-05T14:00:00Z,27.8398,-97.0727,0.0,3.6,130.0,,'1111122,1111122,1111122' 
TCOON,ioos:station:TCOON:009:1,2011-11-05T15:00:00Z,27.8398,-97.0727,0.0,3.1,140.0,,'1111122,1111122,1111122' 
TCOON,ioos:station:TCOON:009:1,2011-11-05T16:00:00Z,27.8398,-97.0727,0.0,5.1,130.0,,'1111122,1111122,1111122' 
TCOON,ioos:station:TCOON:009:1,2011-11-05T17:00:00Z,27.8398,-97.0727,0.0,5.1,130.0,,'1111122,1111122,1111122' 
TCOON,ioos:station:TCOON:009:1,2011-11-05T18:00:00Z,27.8398,-97.0727,0.0,5.3,122.0,9.0,'11111222,11111222,11111222' 
TCOON,ioos:station:TCOON:009:1,2011-11-05T19:00:00Z,27.8398,-97.0727,0.0,4.6,140.0,,'1111122,1111122,1111122' 
TCOON,ioos:station:TCOON:009:1,2011-11-05T20:00:00Z,27.8398,-97.0727,0.0,5.7,130.0,,'1111122,1111122,1111122' 
TCOON,ioos:station:TCOON:009:1,2011-11-05T21:00:00Z,27.8398,-97.0727,0.0,4.4,144.0,7.0,'11111222,11111222,11111222' 
TCOON,ioos:station:TCOON:009:1,2011-11-05T22:00:00Z,27.8398,-97.0727,0.0,6.2,130.0,,'1111122,1111122,1111122' 
TCOON,ioos:station:TCOON:009:1,2011-11-05T23:00:00Z,27.8398,-97.0727,0.0,6.7,130.0,,'1111122,1111122,1111122' 
TCOON,ioos:station:TCOON:009:1,2011-11-06T00:00:00Z,27.8398,-97.0727,0.0,6.2,130.0,,'1111122,1111122,1111122' 
TCOON,ioos:station:TCOON:009:1,2011-11-06T01:00:00Z,27.8398,-97.0727,0.0,7.7,140.0,,'1111122,1111122,1111122' 
TCOON,ioos:station:TCOON:009:1,2011-11-06T02:00:00Z,27.8398,-97.0727,0.0,5.7,140.0,,'1111122,1111122,1111122' 
TCOON,ioos:station:TCOON:009:1,2011-11-06T03:00:00Z,27.8398,-97.0727,0.0,4.1,140.0,,'1111122,1111122,1111122' 
TCOON,ioos:station:TCOON:009:1,2011-11-06T04:00:00Z,27.8398,-97.0727,0.0,4.1,140.0,,'1111122,1111122,1111122' 
TCOON,ioos:station:TCOON:009:1,2011-11-06T05:00:00Z,27.8398,-97.0727,0.0,5.1,150.0,,'1111122,1111122,1111122' 
TCOON,ioos:station:TCOON:009:1,2011-11-06T06:00:00Z,27.8398,-97.0727,0.0,5.7,150.0,,'1111122,1111122,1111122' 
TCOON,ioos:station:TCOON:009:1,2011-11-06T07:00:00Z,27.8398,-97.0727,0.0,5.1,140.0,,'1111122,1111122,1111122' 
TCOON,ioos:station:TCOON:009:1,2011-11-06T08:00:00Z,27.8398,-97.0727,0.0,4.6,150.0,,'1111122,1111122,1111122' 
TCOON,ioos:station:TCOON:009:1,2011-11-06T09:00:00Z,27.8398,-97.0727,0.0,4.6,150.0,,'1111122,1111122,1111122' 
TCOON,ioos:station:TCOON:009:1,2011-11-06T10:00:00Z,27.8398,-97.0727,0.0,5.1,140.0,,'1111122,1111122,1111122' 
TCOON,ioos:station:TCOON:009:1,2011-11-06T11:00:00Z,27.8398,-97.0727,0.0,3.6,140.0,,'1111122,1111122,1111122' 
TCOON,ioos:station:TCOON:009:1,2011-11-06T12:00:00Z,27.8398,-97.0727,0.0,4.1,143.0,6.7,'11111222,11111222,11111222' 
TCOON,ioos:station:TCOON:009:1,2011-11-06T13:00:00Z,27.8398,-97.0727,0.0,2.4,151.0,13.1,'11111222,11111222,11111222' 
TCOON,ioos:station:TCOON:009:1,2011-11-06T14:00:00Z,27.8398,-97.0727,0.0,2.3,145.0,5.0,'11111222,11111222,11111222' 
TCOON,ioos:station:TCOON:009:1,2011-11-06T15:00:00Z,27.8398,-97.0727,0.0,3.6,142.0,6.0,'11111222,11111222,11111222' 
TCOON,ioos:station:TCOON:009:1,2011-11-06T16:00:00Z,27.8398,-97.0727,0.0,5.0,138.0,6.4,'11111222,11111222,11111222' 
TCOON,ioos:station:TCOON:009:1,2011-11-06T17:00:00Z,27.8398,-97.0727,0.0,4.2,132.0,6.6,'11111222,11111222,11111222' 
TCOON,ioos:station:TCOON:009:1,2011-11-06T18:00:00Z,27.8398,-97.0727,0.0,4.4,137.0,6.8,'11111222,11111222,11111222' 
TCOON,ioos:station:TCOON:009:1,2011-11-06T19:00:00Z,27.8398,-97.0727,0.0,3.6,135.0,6.7,'11111222,11111222,11111222' 
TCOON,ioos:station:TCOON:009:1,2011-11-06T20:00:00Z,27.8398,-97.0727,0.0,5.0,131.0,9.2,'11111222,11111222,11111222' 
TCOON,ioos:station:TCOON:009:1,2011-11-06T21:00:00Z,27.8398,-97.0727,0.0,5.5,129.0,7.2,'11111222,11111222,11111222' 
TCOON,ioos:station:TCOON:009:1,2011-11-06T22:00:00Z,27.8398,-97.0727,0.0,5.1,124.0,7.4,'11111222,11111222,11111222' 
TCOON,ioos:station:TCOON:009:1,2011-11-06T23:00:00Z,27.8398,-97.0727,0.0,4.4,128.0,7.2,'11111222,11111222,11111222' 
TCOON,ioos:station:TCOON:009:1,2011-11-07T00:00:00Z,27.8398,-97.0727,0.0,4.3,127.0,5.8,'11111222,11111222,11111222' 
TCOON,ioos:station:TCOON:009:1,2011-11-07T01:00:00Z,27.8398,-97.0727,0.0,4.6,140.0,,'1111122,1111122,1111122' 
TCOON,ioos:station:TCOON:009:1,2011-11-07T02:00:00Z,27.8398,-97.0727,0.0,4.1,130.0,,'1111122,1111122,1111122' 
TCOON,ioos:station:TCOON:009:1,2011-11-07T03:00:00Z,27.8398,-97.0727,0.0,3.6,140.0,,'1111122,1111122,1111122' 
TCOON,ioos:station:TCOON:009:1,2011-11-07T04:00:00Z,27.8398,-97.0727,0.0,4.1,140.0,,'1111122,1111122,1111122' 
TCOON,ioos:station:TCOON:009:1,2011-11-07T05:00:00Z,27.8398,-97.0727,0.0,3.6,140.0,,'1111122,1111122,1111122' 
TCOON,ioos:station:TCOON:009:1,2011-11-07T06:00:00Z,27.8398,-97.0727,0.0,4.5,141.0,7.1,'11111222,11111222,11111222' 
TCOON,ioos:station:TCOON:009:1,2011-11-07T07:00:00Z,27.8398,-97.0727,0.0,4.1,160.0,,'1111122,1111122,1111122' 
TCOON,ioos:station:TCOON:009:1,2011-11-07T08:00:00Z,27.8398,-97.0727,0.0,3.6,150.0,,'1111122,1111122,1111122' 
TCOON,ioos:station:TCOON:009:1,2011-11-07T09:00:00Z,27.8398,-97.0727,0.0,2.6,150.0,,'1111122,1111122,1111122' 
TCOON,ioos:station:TCOON:009:1,2011-11-07T10:00:00Z,27.8398,-97.0727,0.0,4.1,150.0,,'1111122,1111122,1111122' 
TCOON,ioos:station:TCOON:009:1,2011-11-07T11:00:00Z,27.8398,-97.0727,0.0,3.6,150.0,,'1111122,1111122,1111122' 
TCOON,ioos:station:TCOON:009:1,2011-11-07T12:00:00Z,27.8398,-97.0727,0.0,2.9,145.0,4.8,'11111222,11111222,11111222' 
TCOON,ioos:station:TCOON:009:1,2011-11-07T13:00:00Z,27.8398,-97.0727,0.0,2.5,138.0,4.2,'11111222,11111222,11111222' 
TCOON,ioos:station:TCOON:009:1,2011-11-07T14:00:00Z,27.8398,-97.0727,0.0,3.1,140.0,,'1111122,1111122,1111122' 
TCOON,ioos:station:TCOON:009:1,2011-11-07T15:00:00Z,27.8398,-97.0727,0.0,4.6,140.0,,'1111122,1111122,1111122' 
TCOON,ioos:station:TCOON:009:1,2011-11-07T16:00:00Z,27.8398,-97.0727,0.0,5.1,150.0,,'1111122,1111122,1111122' 
TCOON,ioos:station:TCOON:009:1,2011-11-07T17:00:00Z,27.8398,-97.0727,0.0,5.1,150.0,,'1111122,1111122,1111122' 
TCOON,ioos:station:TCOON:009:1,2011-11-07T18:00:00Z,27.8398,-97.0727,0.0,5.7,140.0,,'1111122,1111122,1111122' 
TCOON,ioos:station:TCOON:009:1,2011-11-07T19:00:00Z,27.8398,-97.0727,0.0,6.2,150.0,,'1111122,1111122,1111122' 
TCOON,ioos:station:TCOON:009:1,2011-11-07T20:00:00Z,27.8398,-97.0727,0.0,3.6,150.0,,'1111122,1111122,1111122' 
TCOON,ioos:station:TCOON:009:1,2011-11-07T21:00:00Z,27.8398,-97.0727,0.0,5.7,140.0,,'1111122,1111122,1111122' 
TCOON,ioos:station:TCOON:009:1,2011-11-07T22:00:00Z,27.8398,-97.0727,0.0,5.1,140.0,,'1111122,1111122,1111122' 
TCOON,ioos:station:TCOON:009:1,2011-11-07T23:00:00Z,27.8398,-97.0727,0.0,4.1,140.0,,'1111122,1111122,1111122' 
TCOON,ioos:station:TCOON:009:1,2011-11-08T00:00:00Z,27.8398,-97.0727,0.0,4.1,150.0,,'1111122,1111122,1111122' 
TCOON,ioos:station:TCOON:009:1,2011-11-08T01:00:00Z,27.8398,-97.0727,0.0,3.1,130.0,,'1111122,1111122,1111122' 
TCOON,ioos:station:TCOON:009:1,2011-11-08T02:00:00Z,27.8398,-97.0727,0.0,4.1,150.0,,'1111122,1111122,1111122' 
TCOON,ioos:station:TCOON:009:1,2011-11-08T03:00:00Z,27.8398,-97.0727,0.0,3.6,140.0,,'1111122,1111122,1111122' 
TCOON,ioos:station:TCOON:009:1,2011-11-08T04:00:00Z,27.8398,-97.0727,0.0,3.6,140.0,,'1111122,1111122,1111122' 
TCOON,ioos:station:TCOON:009:1,2011-11-08T05:00:00Z,27.8398,-97.0727,0.0,3.6,150.0,,'1111122,1111122,1111122' 
TCOON,ioos:station:TCOON:009:1,2011-11-08T06:00:00Z,27.8398,-97.0727,0.0,3.6,150.0,,'1111122,1111122,1111122' 
TCOON,ioos:station:TCOON:009:1,2011-11-08T07:00:00Z,27.8398,-97.0727,0.0,2.6,150.0,,'1111122,1111122,1111122' 
TCOON,ioos:station:TCOON:009:1,2011-11-08T08:00:00Z,27.8398,-97.0727,0.0,2.6,160.0,,'1111122,1111122,1111122' 
TCOON,ioos:station:TCOON:009:1,2011-11-08T09:00:00Z,27.8398,-97.0727,0.0,3.1,160.0,,'1111122,1111122,1111122' 
TCOON,ioos:station:TCOON:009:1,2011-11-08T10:00:00Z,27.8398,-97.0727,0.0,3.6,170.0,,'1111122,1111122,1111122' 
TCOON,ioos:station:TCOON:009:1,2011-11-08T11:00:00Z,27.8398,-97.0727,0.0,3.1,170.0,,'1111122,1111122,1111122' 
TCOON,ioos:station:TCOON:009:1,2011-11-08T12:00:00Z,27.8398,-97.0727,0.0,3.1,160.0,,'1111122,1111122,1111122' 
TCOON,ioos:station:TCOON:009:1,2011-11-08T13:00:00Z,27.8398,-97.0727,0.0,3.1,170.0,,'1111122,1111122,1111122' 
TCOON,ioos:station:TCOON:009:1,2011-11-08T14:00:00Z,27.8398,-97.0727,0.0,2.6,160.0,,'1111122,1111122,1111122' 
TCOON,ioos:station:TCOON:009:1,2011-11-08T15:00:00Z,27.8398,-97.0727,0.0,4.1,170.0,,'1111122,1111122,1111122' 
TCOON,ioos:station:TCOON:009:1,2011-11-08T16:00:00Z,27.8398,-97.0727,0.0,3.6,180.0,,'1111122,1111122,1111122' 
TCOON,ioos:station:TCOON:009:1,2011-11-08T17:00:00Z,27.8398,-97.0727,0.0,5.7,180.0,,'1111122,1111122,1111122' 
TCOON,ioos:station:TCOON:009:1,2011-11-08T18:00:00Z,27.8398,-97.0727,0.0,5.7,170.0,,'1111122,1111122,1111122' 
TCOON,ioos:station:TCOON:009:1,2011-11-08T19:00:00Z,27.8398,-97.0727,0.0,4.6,170.0,,'1111122,1111122,1111122' 
TCOON,ioos:station:TCOON:009:1,2011-11-08T20:00:00Z,27.8398,-97.0727,0.0,5.1,170.0,,'1111122,1111122,1111122' 
TCOON,ioos:station:TCOON:009:1,2011-11-08T21:00:00Z,27.8398,-97.0727,0.0,3.6,160.0,,'1111122,1111122,1111122' 
TCOON,ioos:station:TCOON:009:1,2011-11-08T22:00:00Z,27.8398,-97.0727,0.0,3.1,160.0,,'1111122,1111122,1111122' 
TCOON,ioos:station:TCOON:009:1,2011-11-08T23:00:00Z,27.8398,-97.0727,0.0,4.1,170.0,,'1111122,1111122,1111122' 
TCOON,ioos:station:TCOON:009:1,2011-11-09T00:00:00Z,27.8398,-97.0727,0.0,3.1,170.0,,'1111122,1111122,1111122' 
TCOON,ioos:station:TCOON:009:1,2011-11-09T01:00:00Z,27.8398,-97.0727,0.0,1.5,180.0,,'1111122,1111122,1111122' 
TCOON,ioos:station:TCOON:009:1,2011-11-09T02:00:00Z,27.8398,-97.0727,0.0,1.0,220.0,,'1111122,1111122,1111122' 
TCOON,ioos:station:TCOON:009:1,2011-11-09T03:00:00Z,27.8398,-97.0727,0.0,3.1,310.0,,'1111122,1111122,1111122' 
TCOON,ioos:station:TCOON:009:1,2011-11-09T04:00:00Z,27.8398,-97.0727,0.0,4.1,360.0,,'1111122,1111122,1111122' 
TCOON,ioos:station:TCOON:009:1,2011-11-09T05:00:00Z,27.8398,-97.0727,0.0,5.1,10.0,,'1111122,1111122,1111122' 
TCOON,ioos:station:TCOON:009:1,2011-11-09T06:00:00Z,27.8398,-97.0727,0.0,5.1,20.0,,'1111122,1111122,1111122' 
TCOON,ioos:station:TCOON:009:1,2011-11-09T07:00:00Z,27.8398,-97.0727,0.0,6.2,10.0,,'1111122,1111122,1111122' 
TCOON,ioos:station:TCOON:009:1,2011-11-09T08:00:00Z,27.8398,-97.0727,0.0,6.7,360.0,,'1111122,1111122,1111122' 
TCOON,ioos:station:TCOON:009:1,2011-11-09T09:00:00Z,27.8398,-97.0727,0.0,7.7,10.0,,'1111122,1111122,1111122' 
TCOON,ioos:station:TCOON:009:1,2011-11-09T10:00:00Z,27.8398,-97.0727,0.0,7.7,10.0,,'1111122,1111122,1111122' 
TCOON,ioos:station:TCOON:009:1,2011-11-09T11:00:00Z,27.8398,-97.0727,0.0,6.2,10.0,,'1111122,1111122,1111122' 
TCOON,ioos:station:TCOON:009:1,2011-11-09T12:00:00Z,27.8398,-97.0727,0.0,10.3,20.0,,'1111122,1111122,1111122' 
TCOON,ioos:station:TCOON:009:1,2011-11-09T13:00:00Z,27.8398,-97.0727,0.0,9.3,20.0,,'1111122,1111122,1111122' 
TCOON,ioos:station:TCOON:009:1,2011-11-09T14:00:00Z,27.8398,-97.0727,0.0,11.3,10.0,,'1111122,1111122,1111122' 
TCOON,ioos:station:TCOON:009:1,2011-11-09T15:00:00Z,27.8398,-97.0727,0.0,9.8,10.0,,'1111122,1111122,1111122' 
TCOON,ioos:station:TCOON:009:1,2011-11-09T16:00:00Z,27.8398,-97.0727,0.0,8.7,10.0,,'1111122,1111122,1111122' 
TCOON,ioos:station:TCOON:009:1,2011-11-09T17:00:00Z,27.8398,-97.0727,0.0,8.7,10.0,,'1111122,1111122,1111122' 
TCOON,ioos:station:TCOON:009:1,2011-11-09T18:00:00Z,27.8398,-97.0727,0.0,8.2,340.0,,'1111122,1111122,1111122' 
TCOON,ioos:station:TCOON:009:1,2011-11-09T19:00:00Z,27.8398,-97.0727,0.0,7.7,340.0,,'1111122,1111122,1111122' 
TCOON,ioos:station:TCOON:009:1,2011-11-09T20:00:00Z,27.8398,-97.0727,0.0,7.2,330.0,,'1111122,1111122,1111122' 
TCOON,ioos:station:TCOON:009:1,2011-11-09T21:00:00Z,27.8398,-97.0727,0.0,9.3,330.0,,'1111122,1111122,1111122' 
TCOON,ioos:station:TCOON:009:1,2011-11-09T22:00:00Z,27.8398,-97.0727,0.0,7.7,350.0,,'1111122,1111122,1111122' 
TCOON,ioos:station:TCOON:009:1,2011-11-09T23:00:00Z,27.8398,-97.0727,0.0,8.7,340.0,,'1111122,1111122,1111122' 
TCOON,ioos:station:TCOON:009:1,2011-11-10T00:00:00Z,27.8398,-97.0727,0.0,4.6,350.0,,'1111122,1111122,1111122' 
TCOON,ioos:station:TCOON:009:1,2011-11-10T01:00:00Z,27.8398,-97.0727,0.0,6.2,350.0,,'1111122,1111122,1111122' 
TCOON,ioos:station:TCOON:009:1,2011-11-10T02:00:00Z,27.8398,-97.0727,0.0,9.3,350.0,,'1111122,1111122,1111122' 
TCOON,ioos:station:TCOON:009:1,2011-11-10T03:00:00Z,27.8398,-97.0727,0.0,8.2,360.0,,'1111122,1111122,1111122' 
TCOON,ioos:station:TCOON:009:1,2011-11-10T04:00:00Z,27.8398,-97.0727,0.0,9.3,350.0,,'1111122,1111122,1111122' 
TCOON,ioos:station:TCOON:009:1,2011-11-10T05:00:00Z,27.8398,-97.0727,0.0,8.7,360.0,,'1111122,1111122,1111122' 
TCOON,ioos:station:TCOON:009:1,2011-11-10T06:00:00Z,27.8398,-97.0727,0.0,6.7,360.0,,'1111122,1111122,1111122' 
TCOON,ioos:station:TCOON:009:1,2011-11-10T07:00:00Z,27.8398,-97.0727,0.0,6.7,350.0,,'1111122,1111122,1111122' 
TCOON,ioos:station:TCOON:009:1,2011-11-10T08:00:00Z,27.8398,-97.0727,0.0,5.1,360.0,,'1111122,1111122,1111122' 
TCOON,ioos:station:TCOON:009:1,2011-11-10T09:00:00Z,27.8398,-97.0727,0.0,5.7,360.0,,'1111122,1111122,1111122' 